Location: Pisgah Heights
(35.0562°N, 90.0954°W)
Time: 05:08:08
(UTC+00:00)

Daily predictions for brighter satellites

Satellite Brightness Start Highest point End
(mag) Time Altitude Azimuth Time Altitude Azimuth Time Altitude Azimuth
Cosmos 1980 Rocket 2.5 01:36:45 10° NNW 01:42:20 55° ENE 01:47:51 10° SE
COSMOS 2406 3.3 01:36:44 10° SSW 01:42:29 85° ESE 01:48:15 10° NNE
ATLAS CENTAUR R/B 2.8 01:44:53 10° SE 01:46:23 12° ESE 01:47:53 10° E
Okean-O 4.1 01:43:55 10° ESE 01:47:19 22° ENE 01:50:42 10° NNE
CARTOSAT-1 3.7 01:44:22 10° SSE 01:48:30 54° ENE 01:52:40 10° N
Cosmos 1633 Rocket 3.1 01:44:28 10° N 01:48:49 66° E 01:53:08 10° SSE
DELTA 2 DEB (DPAF) 4.0 01:45:25 10° NNE 01:49:36 60° E 01:53:44 10° S
Cosmos 1470 Rocket 3.6 01:59:59 10° N 02:04:16 59° E 02:08:30 10° SSE
Cosmos 1626 4.5 02:02:51 10° SW 02:05:24 22° WNW 02:07:58 10° NNW
Okean O Rocket 1.6 02:01:24 10° SSE 02:05:46 71° ENE 02:10:07 10° N
Cosmos 1470 3.6 02:03:32 10° NNE 02:06:48 29° E 02:09:27 14° SE
Cosmos 540 Rocket 4.2 02:02:15 10° N 02:07:01 37° ENE 02:11:09 13° SE
Cosmos 1553 Rocket 4.4 02:01:58 10° N 02:07:53 45° E 02:13:44 11° SSE
Lacrosse 5 rocket 3.9 02:06:14 10° W 02:07:58 12° WSW 02:09:40 10° SW
IRIDIUM 106 4.4 02:02:58 10° N 02:08:07 58° E 02:13:14 10° SSE
USA 186 3.0 02:05:39 10° S 02:08:50 44° W 02:12:02 10° NNW
KORONAS-FOTON 3.7 02:05:24 10° S 02:09:04 67° E 02:12:46 10° NNE
Centaur AC-119 4.4 02:04:49 10° SW 02:09:09 35° SSE 02:21:01 10° E
Cosmos 1666 Rocket 4.4 02:07:07 10° NNW 02:11:20 51° W 02:15:33 10° SSW
Cosmos 1842 3.0 02:12:03 10° S 02:15:42 89° W 02:19:22 10° N
CZ-4B R/B 3.7 02:11:34 10° S 02:16:44 58° WSW 02:22:00 10° NNW
SeaSat 1 4.2 02:18:09 10° E 02:21:28 19° NE 02:24:49 10° N
Tiangong -1.7 02:19:40 10° WNW 02:22:47 56° NNE 02:24:57 18° E
CZ-4 R/B 3.7 02:19:52 10° SSW 02:22:57 22° W 02:26:05 10° NW
Cosmos 1954 Rocket 4.4 02:19:30 10° SSW 02:24:45 67° WNW 02:30:01 10° NNE
SPOT 5 3.3 02:22:14 17° SE 02:25:02 37° ENE 02:29:04 10° N
Cosmos 1933 Rocket 3.8 02:24:05 10° N 02:28:26 54° E 02:31:33 18° SSE
SL-24 R/B 4.4 02:23:56 10° S 02:28:56 79° WSW 02:33:18 10° NNW
In-Cosmos 22 4.3 02:25:28 10° S 02:31:00 58° E 02:36:26 10° NNE
Cosmos 2360 Rocket 4.1 02:30:09 10° NNE 02:33:35 16° NE 02:36:45 11° E
Cosmos 676 Rocket 4.5 02:31:16 10° SSW 02:36:32 65° WNW 02:41:49 10° N
Resurs 01 Rocket 3.0 02:32:41 10° SSW 02:36:43 35° W 02:40:47 10° NNW
Cosmos 1707 3.1 02:34:00 10° SSW 02:37:32 57° W 02:41:06 10° N
ASTRO E2 3.0 02:38:31 10° SW 02:41:40 33° SSE 02:42:09 31° SSE
SL-16 R/B 2.8 02:40:56 10° N 02:46:17 42° ENE 02:49:14 24° ESE
RESURS DK-1 3.9 02:44:57 10° N 02:48:12 22° ENE 02:49:28 19° E
SJ 16-02 2.6 02:50:25 23° E 02:50:25 23° E 02:53:42 10° NE
Cosmos 2333 Rocket 3.9 02:46:13 10° N 02:50:26 21° ENE 02:53:10 15° E
Cosmos 2369 4.5 02:45:38 10° NNW 02:51:07 49° WSW 02:55:49 14° S
ERS-1 Rocket 3.3 02:49:41 26° SE 02:52:10 49° ENE 02:57:00 10° N
Meteor 1-15 Rocket 4.5 02:47:55 10° N 02:53:21 50° E 02:56:04 28° SE
Cosmos 1707 Rocket 4.3 02:53:33 30° ESE 02:54:33 33° E 02:58:33 10° NNE
CZ-4C R/B 4.3 02:53:31 10° N 02:57:32 50° WNW 03:01:28 10° SSW
Cosmos 1833 4.5 02:54:27 22° SSE 02:57:46 45° ESE 03:03:06 10° NE
Cosmos 1758 4.4 02:54:52 10° NNE 02:58:13 26° ENE 02:58:33 26° E
Terra 2.2 02:56:42 30° SE 02:58:31 46° ENE 03:03:01 10° N
MetOp-B 4.1 02:55:25 23° SSE 02:58:53 88° WSW 03:04:16 10° NNW
SL-27 R/B 3.0 02:59:50 31° NE 02:59:50 31° NE 03:01:37 10° NNE
Atlas Centaur 2 3.1 02:52:03 10° W 02:59:57 60° S 03:05:10 24° ESE
Cosmos 841 Rocket 3.9 02:55:20 10° N 03:00:28 50° ENE 03:02:35 31° SE
Cosmos 1763 Rocket 4.4 02:56:13 10° NNW 03:01:07 43° WSW 03:04:58 15° SSW
Spot 2 Rocket 3.8 03:04:15 32° SE 03:06:09 49° ENE 03:11:02 10° N
USA 234 3.8 03:01:04 10° NE 03:07:29 62° NW 03:13:54 10° WSW
Cosmos 2315 Rocket 4.3 03:03:50 10° N 03:10:01 50° E 03:12:38 32° SE
Cosmos 1932 4.5 03:05:25 11° S 03:11:28 57° ESE 03:17:37 10° NE
Cosmos 1300 3.3 03:10:20 10° NNE 03:13:23 35° ENE 03:13:23 35° ENE
IRS-1A Rocket 4.3 03:14:35 29° S 03:17:31 76° WSW 03:23:02 10° NNW
Cosmos 1400 Rocket 3.5 03:15:07 20° SSW 03:17:36 49° W 03:21:21 10° N
ARGOS Delta rocket 4.3 03:15:40 25° SSW 03:18:03 51° W 03:22:20 10° NNW
Okean 1-7 4.5 03:19:45 23° ENE 03:19:45 23° ENE 03:22:31 10° NE
Cosmos 1441 Rocket 4.2 03:16:35 10° NNW 03:19:58 38° W 03:21:16 28° SW
Cosmos 1733 Rocket 3.6 03:16:34 10° N 03:20:44 40° E 03:21:04 39° E
Okean-O 4.3 03:20:32 14° SSW 03:23:30 27° W 03:27:16 10° NW
Cosmos 1356 Rocket 3.3 03:22:32 49° S 03:23:38 89° E 03:27:51 10° N
ATLAS CENTAUR R/B 2.8 03:20:32 10° WSW 03:23:39 31° NW 03:26:51 10° N
Cosmos 1980 Rocket 4.5 03:22:17 10° WNW 03:25:44 17° W 03:29:10 10° SW
Cosmos 2322 Rocket 2.4 03:22:55 10° NNW 03:28:33 60° ENE 03:30:11 43° ESE
Meteor 2-10 Rocket 3.5 03:25:05 10° N 03:30:36 84° E 03:32:12 47° SSE
Meteor 1-12 Rocket 4.3 03:24:36 10° N 03:30:39 84° E 03:32:55 41° SSE
Ariane Rocket 2.9 03:29:26 48° SSE 03:30:54 82° ENE 03:36:00 10° N
Meteor 1-22 Rocket 4.4 03:25:32 10° NNW 03:31:16 72° W 03:33:59 33° S
USA 245 3.4 03:32:06 54° WSW 03:32:20 55° W 03:36:16 10° NNW
Cosmos 1315 Rocket 3.9 03:38:28 32° ENE 03:38:28 32° ENE 03:41:08 10° NNE
Cosmos 2228 Rocket 3.6 03:39:24 35° SW 03:41:05 57° W 03:45:35 10° N
Cosmos 2278 4.4 03:36:04 10° NNW 03:41:31 47° WSW 03:43:39 32° SSW
Cosmos 1953 4.2 03:39:30 10° NNE 03:41:18 18° NE 03:41:18 18° NE
TRAILBLAZER 4.4 03:39:44 10° NNW 03:44:21 88° WSW 03:44:41 77° SSE
Landsat 4 4.0 03:45:44 56° NW 03:45:44 56° NW 03:48:39 10° NNW
Cosmos 1241 Rocket 4.4 03:40:31 14° SSW 03:45:59 81° WNW 03:52:14 10° NNE
BlueWalker 3 3.4 03:48:25 29° NE 03:48:25 29° NE 03:50:21 10° NE
Meteor 1-21 4.4 03:45:53 32° SSW 03:48:36 70° W 03:54:25 10° N
MOS 1 Rocket 3.8 03:47:05 44° SSW 03:48:40 66° W 03:53:59 10° NNW
ATLAS 2AS CENTAUR R/B 2.9 03:45:14 10° NNW 03:51:53 57° NE 03:53:49 42° ESE
Cosmos 2219 Rocket 3.0 03:47:33 10° N 03:52:45 36° ENE 03:53:40 34° E
USA 281 4.5 03:54:58 23° E 03:57:15 28° ENE 04:02:39 10° N
Meteor 2-20 Rocket 4.5 03:51:10 10° N 03:57:16 58° E 03:58:07 53° ESE
SeaSat 1 2.8 03:57:51 49° SW 03:58:30 52° WSW 04:03:18 10° NW
Cosmos 968 Rocket 4.5 03:55:15 18° SW 03:58:43 43° WNW 04:03:39 10° N
Tiangong 0.9 03:56:52 10° W 03:57:06 11° W 03:57:06 11° W
MetOp-A 3.9 04:00:19 69° ESE 04:00:44 73° ENE 04:05:59 10° N
SPOT 3 Rocket 4.0 04:00:42 46° SW 04:01:43 54° W 04:06:46 10° NNW
Landsat 5 4.2 04:04:46 10° N 04:08:42 47° WNW 04:08:59 46° W
Cosmos 1703 Rocket 4.2 04:11:48 48° NE 04:11:48 48° NE 04:15:12 10° NNE
Okean 3 4.3 04:10:42 41° W 04:10:51 41° W 04:14:49 10° N
Cosmos 1346 Rocket 3.9 04:08:02 10° NNW 04:11:07 38° WNW 04:11:07 38° WNW
Cosmos 1455 4.0 04:08:20 10° N 04:09:56 23° NNE 04:09:56 23° NNE
Cosmos 1814 Rocket 3.9 04:12:34 10° NNW 04:17:54 87° ENE 04:17:57 87° E
Cosmos 2360 Rocket 2.2 04:12:26 10° NNW 04:18:04 67° WSW 04:18:30 64° SW
RESURS DK-1 4.3 04:22:33 10° NW 04:25:03 22° W 04:25:03 22° W
COSMOS 2455 3.1 04:27:48 53° E 04:27:48 53° E 04:32:54 10° NE
SJ 16-02 3.3 04:27:07 21° W 04:28:30 24° WNW 04:32:02 10° NNW
SL-16 R/B 3.8 04:25:45 10° NW 04:30:01 22° W 04:31:06 21° WSW
Cosmos 839 Rocket 3.9 04:24:08 10° NNW 04:30:40 76° ENE 04:31:15 70° ESE
Cosmos 2333 Rocket 2.6 04:29:25 10° NNW 04:35:00 52° WSW 04:35:10 52° WSW
Terra 4.1 04:35:24 14° WSW 04:36:17 15° W 04:38:54 10° WNW
CZ-3 Stage 3 3.9 03:58:46 10° W 04:39:52 70° SSW 04:43:33 46° SE
CZ-2C R/B 4.4 04:38:34 10° N 04:42:01 51° NNW 04:42:01 51° NNW
CENTAUR R/B 4.4 04:46:00 14° ENE 04:46:00 14° ENE 04:47:19 10° ENE
Cosmos 371 Rocket 4.5 04:49:55 35° NE 04:49:55 35° NE 04:52:50 10° NNE
Cosmos 1709 Rocket 4.1 04:48:29 61° E 04:48:29 61° E 04:54:34 10° NNE
Atlas Centaur 2 3.8 04:41:28 10° W 04:47:22 35° SW 04:47:22 35° SW
ARIANE 5 R/B 3.7 04:53:07 42° N 04:53:07 42° N 04:56:02 10° NNW
DNEPR-1 R/B 4.2 04:45:56 10° NNW 04:51:28 71° NW 04:51:28 71° NW
Cosmos 2227 Rocket 4.0 04:55:36 20° ENE 04:55:36 20° ENE 04:57:58 10° NE
Cosmos 2237 Rocket 4.0 04:49:23 10° N 04:53:32 20° ENE 04:54:21 20° ENE
CZ-4C R/B 2.8 04:58:36 40° NNE 04:58:36 40° NNE 05:01:57 10° NNE
Cosmos 2322 3.8 04:52:03 10° NNW 04:57:14 69° NNE 04:57:14 69° NNE
Meteor 1-24 Rocket 4.4 04:58:53 45° ENE 04:58:53 45° ENE 05:03:22 10° NNE
Cosmos 1375 Rocket 4.4 05:00:51 10° NNW 05:07:21 83° W 05:07:21 83° W
Cosmos 1486 Rocket 4.5 05:09:52 57° NNW 05:09:52 57° NNW 05:14:10 10° NNE
ATLAS 2A CENTAUR R/B 4.5 04:28:40 10° WSW 05:09:48 58° S 05:12:10 51° SE
Cosmos 2322 Rocket 4.3 05:08:46 10° WNW 05:11:58 15° W 05:11:59 15° W
Cosmos 2297 Rocket 2.6 05:14:18 58° NE 05:14:18 58° NE 05:18:48 10° NNE
H-2A R/B 4.3 05:25:01 10° NNE 05:26:17 18° NE 05:26:17 18° NE
Cosmos 2098 Rocket 4.1 05:27:12 10° N 05:33:21 66° ENE 05:33:21 66° ENE
Meteor 2-5 Rocket 4.0 05:36:02 68° NNW 05:36:02 68° NNW 05:41:16 10° N
Cosmos 2219 Rocket 3.8 05:31:47 10° NW 05:35:22 25° W 05:35:22 25° W
COSMOS 2428 3.3 05:34:24 10° NNW 05:38:48 49° WNW 05:38:48 49° WNW
USA 281 3.6 05:41:51 49° W 05:41:51 49° W 05:47:44 10° NNW
ALOS 2 4.2 05:44:00 33° NNW 05:44:00 33° NNW 05:46:27 10° NNW
ATLAS 2AS CENTAUR R/B 4.2 05:37:13 10° WNW 05:41:14 22° W 05:41:14 22° W
Cosmos 2263 Rocket 4.0 05:47:06 21° ENE 05:47:06 21° ENE 05:49:41 10° NE
Cosmos 2181 Rocket 4.0 05:53:11 10° N 05:58:44 73° N 05:58:44 73° N
Cosmos 2074 Rocket 4.0 06:03:57 72° NNE 06:03:57 72° NNE 06:09:33 10° N
SL-12 R/B(2) 4.0 06:07:21 73° SSW 06:08:18 90° NW 06:17:28 10° NNE
SL-4 R/B 4.4 06:23:58 10° NW 06:25:23 20° NNW 06:25:23 20° NNW
SL-16 R/B 3.2 06:26:09 10° N 06:31:28 38° ENE 06:32:00 38° ENE
CENTAUR R/B 2.8 06:33:08 52° NW 06:33:08 52° NW 06:39:28 10° NNE
Cosmos 2082 4.1 06:36:51 55° NE 06:36:51 55° NE 06:41:23 10° NNE
Cosmos 2227 Rocket 3.2 06:37:23 38° WNW 06:37:23 38° WNW 06:42:29 10° N
Cosmos 2237 Rocket 3.2 06:32:24 10° NNW 06:36:08 37° WNW 06:36:08 37° WNW
GEOS 3 Rocket 4.4 06:36:27 10° NNE 06:41:02 45° NW 06:41:02 45° NW
CZ-2D R/B 4.3 06:42:40 10° ENE 06:45:29 14° E 06:45:38 14° E
Nadezhda 3 Rocket 3.9 06:40:00 10° N 06:45:55 80° NNW 06:45:55 80° NNW
Nimbus 7 Rocket 4.4 06:42:01 10° NNE 06:47:49 82° NNE 06:47:49 82° NNE
Cosmos 1937 Rocket 3.9 07:00:05 58° NE 07:00:05 58° NE 07:04:25 10° NNE
Cosmos 2219 3.9 07:01:34 45° NW 07:01:34 45° NW 07:06:41 10° N
H-2A R/B 4.4 07:01:31 10° NNW 07:03:04 15° NW 07:03:04 15° NW
Cosmos 1898 Rocket 3.9 07:05:14 58° NNW 07:05:14 58° NNW 07:09:30 10° NNE
Cosmos 1975 Rocket 4.3 07:05:59 38° N 07:05:59 38° N 07:08:45 10° N
ADEOS II 4.3 07:02:51 10° ENE 07:05:42 15° E 07:06:31 14° ESE
Resurs 1-4 Rocket 3.1 07:17:04 10° NNE 07:21:55 36° E 07:22:10 36° ESE
SL-8 Rocket 3.8 07:21:49 82° SW 07:22:02 85° W 07:28:15 10° N
NOSS 3-2 (A) 4.2 07:21:44 31° WNW 07:22:20 32° NW 07:27:31 10° NNE
Cosmos 1455 Rocket 4.5 07:18:26 10° NNW 07:21:03 33° NNW 07:21:03 33° NNW
Cosmos 1461 4.5 07:28:39 29° NNW 07:28:39 29° NNW 07:31:02 10° NNE
NOSS 3-2 (C) 3.2 07:28:54 68° NW 07:28:54 68° NW 07:34:30 10° NNE
Cosmos 2263 Rocket 3.0 07:28:45 37° WNW 07:28:53 37° WNW 07:34:02 10° N
Cosmos 1536 Rocket 4.3 07:34:38 50° ENE 07:34:38 50° ENE 07:38:23 10° NNE
Meteor 2-1 Rocket 4.1 07:29:30 10° N 07:35:24 80° W 07:35:31 80° WSW
USA 267 3.9 07:32:39 10° ENE 07:38:37 37° SE 07:39:25 36° SE
Cosmos 1959 Rocket 4.4 07:41:07 68° SW 07:41:47 75° W 07:48:08 10° N
Cosmos 1680 Rocket 3.7 07:37:14 10° N 07:42:24 65° ENE 07:43:08 57° ESE
Cosmos 2112 Rocket 4.4 07:40:01 10° N 07:45:07 56° ENE 07:46:21 45° ESE
Cosmos 1844 Rocket 2.9 07:47:26 53° SE 07:48:03 56° ESE 07:53:30 10° NNE
Cosmos 1818 3.8 07:44:14 10° NNW 07:49:41 68° ENE 07:51:34 40° SE
Cosmos 1437 Rocket 3.5 07:54:44 49° NE 07:54:44 49° NE 07:57:42 10° NNE
COBE Rocket 4.4 07:53:48 10° N 07:58:46 49° WNW 07:58:51 49° WNW
IDEFIX/ARIANE 42P 2.7 08:03:02 10° N 08:08:10 57° WNW 08:08:40 55° W
SL-16 R/B 3.6 08:10:46 10° NW 08:13:49 22° WNW 08:13:49 22° WNW
CZ-2C R/B 2.9 08:12:43 10° N 08:18:02 82° WNW 08:19:01 59° SSW
CZ-2C R/B 2.5 08:17:59 52° S 08:19:20 81° WSW 08:24:43 10° NNW
Cosmos 1603 4.2 08:14:53 10° NNW 08:20:34 60° ENE 08:26:11 10° SSE
Cosmos 1125 Rocket 4.0 08:21:21 36° SSE 08:23:08 52° ESE 08:28:16 10° NNE
Cosmos 1892 Rocket 4.2 08:22:13 39° SE 08:23:23 50° E 08:27:40 10° NNE
CZ-2D R/B 2.3 08:20:37 10° N 08:25:49 57° WNW 08:26:55 47° WSW
Cosmos 1821 Rocket 4.2 08:25:03 43° WSW 08:26:30 52° W 08:32:28 10° N
MSX 4.2 08:21:15 10° N 08:26:44 48° WNW 08:28:10 40° WSW
Cosmos 1943 3.1 08:23:39 10° NNW 08:29:13 69° WSW 08:31:17 39° S
Cosmos 2228 4.0 08:26:49 10° NNW 08:30:02 32° WNW 08:30:02 32° WNW
Cosmos 494 Rocket 4.3 08:25:38 10° NNW 08:30:51 67° ENE 08:35:05 16° SSE
Cosmos 1867 4.2 08:30:15 35° W 08:31:45 43° NW 08:36:58 10° NNE
FENGYUN 3A 3.6 08:27:10 10° N 08:32:33 79° WNW 08:34:20 44° SSW
USA 238 DEB 4.1 08:32:42 32° WSW 08:35:06 46° NW 08:41:24 10° NNE
USA 238 4.1 08:32:45 32° WSW 08:35:09 46° NW 08:41:27 10° NNE
SL-24 DEB 4.1 08:32:57 10° N 08:37:32 89° WNW 08:38:54 46° S
AQUA 3.7 08:34:52 10° N 08:39:36 79° WNW 08:40:58 46° SSW
Cosmos 1812 3.9 08:40:15 10° N 08:43:36 37° E 08:45:49 18° SE
ADEOS II 2.3 08:40:29 10° N 08:45:36 56° WNW 08:47:22 38° SW
ALOS 2.2 08:41:26 10° NNE 08:46:04 85° ESE 08:47:51 38° S
Orbus 7S? 3.8 08:45:27 10° NW 08:48:50 79° NE 08:55:50 10° SE
USA 81 4.4 08:47:55 10° N 08:53:09 64° E 08:57:59 12° SSE
SAR-Lupe-4 3.5 08:51:21 10° NNE 08:54:55 83° ESE 08:55:53 46° S
ATLAS 5 CENTAUR R/B 1.9 08:56:45 30° SSE 08:57:34 36° ESE 09:00:41 10° NE
Resurs 1-4 Rocket 3.4 08:57:16 10° NNW 09:01:27 24° WNW 09:03:13 20° W
Cosmos 1934 Rocket 4.1 08:59:41 26° SSW 09:03:21 65° W 09:09:42 10° N
Cosmos 921 Rocket 3.1 09:01:21 10° NNW 09:05:25 50° WSW 09:06:56 32° SSW
SL-16 R/B 2.5 08:59:19 11° S 09:05:25 74° WSW 09:11:41 10° NNW
Cosmos 2123 Rocket 3.9 09:02:24 10° N 09:08:36 76° W 09:14:25 12° S
IRAS Rocket 4.2 09:03:08 10° NNE 09:08:38 78° WNW 09:12:11 23° SSW
NOSS 2-2 (C) 2.8 09:07:47 39° SSW 09:08:55 75° ESE 09:12:02 10° NE
Cosmos 1606 Rocket 4.2 09:05:54 10° NNW 09:09:59 38° W 09:11:20 30° SW
Meteor 1-28 Rocket 3.4 09:10:16 37° SW 09:10:53 42° W 09:14:15 10° NNW
Cosmos 2058 2.8 09:10:10 31° SSW 09:11:56 65° W 09:15:58 10° N
CZ-4 R/B 4.1 09:13:33 10° NNE 09:18:29 74° ESE 09:22:49 14° S
NOSS 2-2 (D) 3.4 09:16:44 25° S 09:18:35 54° ESE 09:21:42 10° NE
Cosmos 2298 Rocket 4.0 09:16:15 21° SSW 09:19:54 84° WNW 09:25:15 10° NNE
USA 267 3.7 09:15:22 10° NE 09:21:40 54° NW 09:26:45 16° WSW
Cosmos 1726 Rocket 4.3 09:21:00 10° NNW 09:25:01 35° W 09:27:08 22° SW
NOSS 2-3 (E) 3.2 09:22:56 24° SSW 09:25:02 72° ESE 09:28:44 10° NE
Cosmos 1238 Rocket 2.0 09:24:40 10° N 09:27:52 87° W 09:30:15 15° S
NOSS 2-3 (C) 3.0 09:28:26 22° SSW 09:30:39 85° ESE 09:34:22 10° NNE
NOAA 11 4.2 09:26:01 10° N 09:31:31 84° WNW 09:36:41 11° SSW
METEOR-M 4.1 09:26:19 10° N 09:31:39 75° WNW 09:36:25 13° SSW
Cosmos 1844 Rocket 4.4 09:29:05 12° W 09:32:16 18° WNW 09:36:02 10° NNW
Delta 2 Rocket 3.4 09:33:17 12° W 09:36:50 53° SSW 09:41:06 10° ESE
Cosmos 724 4.2 09:35:23 10° NNW 09:41:11 75° WSW 09:47:02 10° SSE
H-2A R/B 3.7 09:37:28 10° NNE 09:42:12 33° E 09:46:48 10° SSE
SEDSat Delta rocket 3.0 09:39:27 16° WSW 09:42:31 49° S 09:46:26 10° ESE
IRS-1D 3.6 09:41:50 10° NNE 09:46:59 81° ESE 09:52:00 10° S
BREEZE-M DEB (TANK) 4.1 09:46:25 10° W 09:49:32 27° SW 09:57:39 10° SSE
Cosmos 220 Rocket 4.3 09:48:43 10° NNW 09:52:50 67° ENE 09:56:54 10° SSE
Cosmos 1602 Rocket 3.6 09:49:00 10° S 09:53:27 85° W 09:57:55 10° N
CZ-2C R/B 2.3 09:49:44 10° N 09:54:14 63° WNW 09:58:47 10° SSW
Envisat 3.6 09:51:23 10° N 09:56:04 39° WNW 10:00:46 10° SW
Cosmos 1544 4.4 09:55:25 12° W 09:56:12 13° WNW 09:57:35 10° NW
Lacrosse 5 3.1 09:51:43 10° S 09:56:19 37° ESE 10:00:56 10° ENE
Cosmos 2278 Rocket 2.9 09:51:21 10° S 09:56:50 55° ESE 10:02:22 10° NNE
Cosmos 1271 Rocket 2.4 09:56:05 10° S 09:59:38 79° W 10:03:14 10° N
H-2A R/B 4.3 10:01:20 10° SE 10:02:28 11° SE 10:03:58 10° ESE
Genesis I 3.7 09:59:13 10° NNW 10:02:48 58° ENE 10:06:21 10° SE
Cosmos 1862 3.1 10:00:43 10° S 10:04:30 79° W 10:08:18 10° N
Cosmos 1758 Rocket 3.9 10:01:40 10° SSW 10:05:58 50° W 10:10:16 10° N
Cosmos 2058 Rocket 4.3 10:02:30 10° NW 10:06:01 24° W 10:09:29 10° SW
Cosmos 1484 Rocket 3.9 10:06:48 10° NNE 10:10:27 44° E 10:14:04 10° S
Cosmos 2100 Rocket 4.0 10:04:35 10° S 10:10:48 90° WSW 10:17:00 10° N
Meteor 2-2 Rocket 4.2 10:07:21 10° NNW 10:12:56 69° W 10:18:31 10° S
YAOGAN 6 3.4 10:10:33 10° NNW 10:13:21 28° WNW 10:16:06 10° SW
